| time (UTC) | temp F | wind direction | speed MPH | gust MPH | rain 1hr in | rain 24hr in | rain mn in | humidity % | barometer mb |
| 20260902133100 | 58 | 200 | 8.0 | 18.0 | 0.00 | 0.01 | 0.01 | 89 | 1005.5 |
| 20260902132631 | 58 | 218 | 7.0 | 18.0 | 0.00 | 0.01 | 0.01 | 89 | 1005.6 |
| 20260902132543 | 58 | 218 | 6.0 | 18.0 | 0.00 | 0.01 | 0.01 | 89 | 1005.6 |
| 20260902132123 | 58 | 214 | 7.0 | 18.0 | 0.00 | 0.01 | 0.01 | 90 | 1005.6 |
| 20260902132026 | 58 | 142 | 6.0 | 18.0 | 0.00 | 0.01 | 0.01 | 90 | 1005.6 |
| 20260902131616 | 58 | 159 | 11.0 | 14.0 | 0.00 | 0.01 | 0.01 | 90 | 1005.7 |
| 20260902131509 | 58 | 212 | 8.0 | 11.0 | 0.00 | 0.01 | 0.01 | 90 | 1005.7 |
| 20260902131109 | 58 | 152 | 5.0 | 11.0 | 0.00 | 0.01 | 0.01 | 90 | 1005.7 |
| 20260902130952 | 58 | 158 | 9.0 | 10.0 | 0.00 | 0.01 | 0.01 | 90 | 1005.7 |
| 20260902130602 | 58 | 159 | 12.0 | 17.0 | 0.00 | 0.01 | 0.01 | 90 | 1005.8 |
| 20260902130435 | 58 | 170 | 10.0 | 17.0 | 0.00 | 0.01 | 0.01 | 90 | 1005.8 |
| 20260902130055 | 58 | 217 | 7.0 | 17.0 | 0.00 | 0.01 | 0.01 | 91 | 1005.9 |
| 20260902125918 | 58 | 217 | 6.0 | 17.0 | 0.00 | 0.01 | 0.01 | 91 | 1005.8 |
| 20260902125548 | 58 | 189 | 10.0 | 17.0 | 0.00 | 0.01 | 0.01 | 91 | 1005.9 |
| 20260902125401 | 58 | 233 | 9.0 | 17.0 | 0.00 | 0.01 | 0.01 | 91 | 1005.9 |
| 20260902125041 | 58 | 172 | 12.0 | 17.0 | 0.00 | 0.01 | 0.01 | 91 | 1005.9 |
| 20260902124844 | 58 | 159 | 8.0 | 15.0 | 0.00 | 0.01 | 0.01 | 91 | 1005.9 |
| 20260902124534 | 58 | 170 | 10.0 | 15.0 | 0.00 | 0.01 | 0.01 | 91 | 1006.0 |
| 20260902124027 | 58 | 179 | 8.0 | 14.0 | 0.00 | 0.01 | 0.01 | 90 | 1006.1 |
| 20260902123810 | 58 | 187 | 7.0 | 14.0 | 0.00 | 0.01 | 0.01 | 90 | 1006.1 |
| 20260902123253 | 58 | 233 | 6.0 | 12.0 | 0.00 | 0.01 | 0.01 | 90 | 1006.2 |
| 20260902123013 | 58 | 225 | 5.0 | 12.0 | 0.00 | 0.01 | 0.01 | 89 | 1006.2 |
| 20260902122736 | 58 | 229 | 9.0 | 12.0 | 0.00 | 0.01 | 0.01 | 89 | 1006.4 |
| 20260902122506 | 58 | 229 | 11.0 | 12.0 | 0.00 | 0.01 | 0.01 | 89 | 1006.5 |
| 20260902122219 | 58 | 193 | 9.0 | 18.0 | 0.00 | 0.01 | 0.01 | 89 | 1006.4 |
| 20260902121959 | 58 | 240 | 5.0 | 18.0 | 0.00 | 0.01 | 0.01 | 88 | 1006.4 |
| 20260902121701 | 59 | 201 | 7.0 | 18.0 | 0.00 | 0.01 | 0.01 | 88 | 1006.4 |
| 20260902121452 | 59 | 201 | 5.0 | 18.0 | 0.00 | 0.01 | 0.01 | 88 | 1006.5 |
| 20260902121145 | 59 | 201 | 8.0 | 18.0 | 0.00 | 0.01 | 0.01 | 87 | 1006.5 |
| 20260902120945 | 59 | 177 | 7.0 | 18.0 | 0.00 | 0.01 | 0.01 | 87 | 1006.5 |
| 20260902120627 | 59 | 147 | 12.0 | 18.0 | 0.00 | 0.01 | 0.01 | 87 | 1006.6 |
| 20260902120438 | 59 | 193 | 9.0 | 16.0 | 0.00 | 0.01 | 0.01 | 87 | 1006.6 |
| 20260902120111 | 59 | 194 | 11.0 | 16.0 | 0.00 | 0.01 | 0.01 | 87 | 1006.6 |
| 20260902115931 | 59 | 208 | 10.0 | 14.0 | 0.00 | 0.01 | 0.01 | 88 | 1006.6 |
| 20260902115553 | 59 | 194 | 7.0 | 13.0 | 0.00 | 0.01 | 0.01 | 88 | 1006.6 |
| 20260902115424 | 59 | 172 | 7.0 | 13.0 | 0.00 | 0.01 | 0.01 | 88 | 1006.6 |
| 20260902115037 | 59 | 147 | 5.0 | 9.0 | 0.00 | 0.01 | 0.01 | 88 | 1006.5 |
| 20260902114917 | 59 | 162 | 6.0 | 9.0 | 0.00 | 0.01 | 0.01 | 88 | 1006.6 |
| 20260902114519 | 59 | 190 | 7.0 | 19.0 | 0.00 | 0.01 | 0.01 | 88 | 1006.6 |
| 20260902114410 | 59 | 190 | 8.0 | 19.0 | 0.00 | 0.01 | 0.01 | 88 | 1006.7 |
| 20260902114003 | 59 | 200 | 6.0 | 19.0 | 0.00 | 0.01 | 0.01 | 88 | 1006.6 |
| 20260902113446 | 59 | 152 | 8.0 | 19.0 | 0.00 | 0.01 | 0.01 | 89 | 1006.6 |
| 20260902113356 | 59 | 187 | 9.0 | 19.0 | 0.00 | 0.01 | 0.01 | 89 | 1006.8 |
| 20260902112928 | 59 | 211 | 10.0 | 19.0 | 0.00 | 0.01 | 0.01 | 89 | 1006.7 |
| 20260902112849 | 59 | 211 | 11.0 | 19.0 | 0.00 | 0.01 | 0.01 | 89 | 1006.8 |
| 20260902112411 | 59 | 217 | 8.0 | 13.0 | 0.00 | 0.01 | 0.01 | 89 | 1006.9 |
| 20260902112342 | 59 | 208 | 8.0 | 13.0 | 0.00 | 0.01 | 0.01 | 90 | 1006.9 |
| 20260902111854 | 59 | 233 | 5.0 | 7.0 | 0.00 | 0.01 | 0.01 | 90 | 1006.9 |
| 20260902111837 | 59 | 233 | 7.0 | 7.0 | 0.00 | 0.01 | 0.01 | 90 | 1007.1 |
| 20260902111338 | 58 | 200 | 4.0 | 15.0 | 0.00 | 0.01 | 0.01 | 90 | 1007.2 |
| 20260902110821 | 58 | 173 | 6.0 | 15.0 | 0.00 | 0.01 | 0.01 | 91 | 1007.3 |
| 20260902110303 | 58 | 127 | 9.0 | 15.0 | 0.00 | 0.01 | 0.01 | 91 | 1007.3 |
| 20260902105746 | 58 | 236 | 7.0 | 10.0 | 0.00 | 0.01 | 0.01 | 92 | 1007.4 |
| 20260902105259 | 58 | 168 | 7.0 | 10.0 | 0.00 | 0.01 | 0.01 | 92 | 1007.4 |
| 20260902105231 | 58 | 168 | 6.0 | 10.0 | 0.00 | 0.01 | 0.01 | 92 | 1007.4 |
| 20260902104752 | 58 | 163 | 8.0 | 10.0 | 0.00 | 0.01 | 0.01 | 93 | 1007.4 |
| 20260902104712 | 58 | 168 | 7.0 | 10.0 | 0.00 | 0.01 | 0.01 | 93 | 1007.5 |
| 20260902104245 | 58 | 183 | 6.0 | 10.0 | 0.00 | 0.01 | 0.01 | 93 | 1007.5 |
| 20260902104156 | 58 | 183 | 7.0 | 10.0 | 0.00 | 0.01 | 0.01 | 93 | 1007.6 |
| 20260902103738 | 58 | 162 | 7.0 | 10.0 | 0.00 | 0.01 | 0.01 | 93 | 1007.7 |
| 20260902103638 | 58 | 162 | 7.0 | 10.0 | 0.00 | 0.01 | 0.01 | 94 | 1007.7 |
| 20260902103232 | 58 | 173 | 8.0 | 10.0 | 0.00 | 0.01 | 0.01 | 94 | 1007.8 |
| 20260902103121 | 58 | 173 | 5.0 | 10.0 | 0.00 | 0.01 | 0.01 | 94 | 1007.9 |
| 20260902102724 | 58 | 168 | 6.0 | 10.0 | 0.00 | 0.01 | 0.01 | 94 | 1007.8 |
| 20260902102605 | 58 | 168 | 9.0 | 10.0 | 0.00 | 0.01 | 0.01 | 94 | 1007.8 |
| 20260902102217 | 58 | 173 | 7.0 | 10.0 | 0.00 | 0.01 | 0.01 | 95 | 1007.8 |
| 20260902102048 | 58 | 112 | 4.0 | 10.0 | 0.00 | 0.01 | 0.01 | 95 | 1007.8 |
| 20260902101711 | 58 | 172 | 7.0 | 10.0 | 0.00 | 0.01 | 0.01 | 95 | 1007.8 |
| 20260902101530 | 58 | 161 | 5.0 | 10.0 | 0.00 | 0.01 | 0.01 | 95 | 1007.8 |
| 20260902101203 | 58 | 147 | 8.0 | 10.0 | 0.00 | 0.01 | 0.01 | 95 | 1007.8 |
| 20260902101013 | 58 | 145 | 7.0 | 8.0 | 0.00 | 0.01 | 0.01 | 95 | 1007.8 |
| 20260902100656 | 58 | 175 | 3.0 | 7.0 | 0.00 | 0.01 | 0.01 | 95 | 1007.8 |
| 20260902100456 | 58 | 175 | 5.0 | 10.0 | 0.00 | 0.01 | 0.01 | 96 | 1007.8 |
| 20260902100149 | 58 | 158 | 4.0 | 10.0 | 0.00 | 0.01 | 0.01 | 96 | 1007.8 |
| 20260902095939 | 58 | 169 | 3.0 | 10.0 | 0.00 | 0.01 | 0.01 | 96 | 1007.8 |
| 20260902095642 | 58 | 152 | 8.0 | 10.0 | 0.00 | 0.01 | 0.01 | 96 | 1007.9 |
| 20260902095422 | 58 | 152 | 7.0 | 10.0 | 0.00 | 0.01 | 0.01 | 96 | 1007.8 |
| 20260902095135 | 58 | 212 | 6.0 | 10.0 | 0.00 | 0.01 | 0.01 | 96 | 1008.0 |
| 20260902094905 | 58 | 190 | 2.0 | 10.0 | 0.00 | 0.01 | 0.01 | 96 | 1008.1 |
| 20260902094628 | 58 | 207 | 7.0 | 14.0 | 0.00 | 0.01 | 0.01 | 96 | 1008.1 |
| 20260902094349 | 57 | 145 | 7.0 | 14.0 | 0.00 | 0.01 | 0.01 | 96 | 1008.2 |
| 20260902094121 | 57 | 169 | 6.0 | 14.0 | 0.00 | 0.01 | 0.01 | 97 | 1008.3 |
| 20260902093614 | 57 | 184 | 11.0 | 14.0 | 0.00 | 0.01 | 0.01 | 97 | 1008.4 |
| 20260902093314 | 57 | 221 | 2.0 | 14.0 | 0.00 | 0.01 | 0.01 | 97 | 1008.5 |
| 20260902093109 | 57 | 134 | 10.0 | 14.0 | 0.00 | 0.01 | 0.01 | 97 | 1008.5 |
| 20260902092757 | 57 | 172 | 7.0 | 13.0 | 0.00 | 0.01 | 0.01 | 97 | 1008.5 |
| 20260902092601 | 57 | 173 | 11.0 | 13.0 | 0.00 | 0.01 | 0.01 | 97 | 1008.5 |
| 20260902092241 | 57 | 198 | 9.0 | 13.0 | 0.00 | 0.01 | 0.01 | 97 | 1008.6 |
| 20260902092053 | 57 | 224 | 8.0 | 13.0 | 0.00 | 0.01 | 0.01 | 97 | 1008.6 |
| 20260902091723 | 57 | 203 | 9.0 | 13.0 | 0.00 | 0.01 | 0.01 | 97 | 1008.6 |
| 20260902091546 | 57 | 182 | 9.0 | 12.0 | 0.00 | 0.01 | 0.01 | 97 | 1008.6 |
| 20260902091206 | 57 | 196 | 11.0 | 17.0 | 0.00 | 0.01 | 0.01 | 97 | 1008.7 |
| 20260902091039 | 57 | 204 | 9.0 | 17.0 | 0.00 | 0.01 | 0.01 | 97 | 1008.7 |
| 20260902090649 | 57 | 214 | 8.0 | 17.0 | 0.00 | 0.01 | 0.01 | 98 | 1008.7 |
| 20260902090532 | 57 | 214 | 11.0 | 17.0 | 0.00 | 0.01 | 0.01 | 98 | 1008.8 |
| 20260902090132 | 57 | 210 | 8.0 | 17.0 | 0.00 | 0.01 | 0.01 | 98 | 1008.7 |
| 20260902090025 | 57 | 210 | 9.0 | 17.0 | 0.00 | 0.01 | 0.01 | 98 | 1008.8 |
| 20260902085615 | 57 | 211 | 8.0 | 17.0 | 0.00 | 0.01 | 0.01 | 98 | 1008.8 |
| 20260902085518 | 57 | 187 | 9.0 | 14.0 | 0.00 | 0.01 | 0.01 | 98 | 1008.8 |
| 20260902085059 | 57 | 211 | 8.0 | 24.0 | 0.00 | 0.01 | 0.01 | 98 | 1008.8 |
| 20260902085011 | 57 | 211 | 9.0 | 24.0 | 0.00 | 0.01 | 0.01 | 98 | 1008.9 |
| 20260902084541 | 57 | 176 | 8.0 | 24.0 | 0.00 | 0.01 | 0.01 | 98 | 1009.1 |
| 20260902084504 | 57 | 176 | 10.0 | 24.0 | 0.00 | 0.01 | 0.01 | 98 | 1009.1 |
| 20260902084024 | 57 | 165 | 12.0 | 24.0 | 0.00 | 0.01 | 0.01 | 98 | 1009.2 |
| 20260902083957 | 57 | 165 | 8.0 | 24.0 | 0.00 | 0.01 | 0.01 | 98 | 1009.2 |
| 20260902083507 | 57 | 145 | 9.0 | 22.0 | 0.00 | 0.01 | 0.01 | 98 | 1009.1 |
| 20260902083450 | 57 | 145 | 8.0 | 22.0 | 0.00 | 0.01 | 0.01 | 98 | 1009.1 |
| 20260902082950 | 57 | 140 | 11.0 | 17.0 | 0.00 | 0.01 | 0.01 | 98 | 1009.2 |
| 20260902082436 | 57 | 205 | 9.0 | 13.0 | 0.00 | 0.01 | 0.01 | 98 | 1009.2 |
| 20260902082433 | 57 | 205 | 9.0 | 13.0 | 0.00 | 0.01 | 0.01 | 98 | 1009.2 |
| 20260902081929 | 58 | 203 | 9.0 | 18.0 | 0.00 | 0.01 | 0.01 | 98 | 1009.3 |
| 20260902081916 | 57 | 203 | 10.0 | 18.0 | 0.00 | 0.01 | 0.01 | 98 | 1009.3 |
| 20260902081422 | 57 | 189 | 11.0 | 18.0 | 0.00 | 0.01 | 0.01 | 98 | 1009.3 |
| 20260902081359 | 57 | 189 | 10.0 | 18.0 | 0.00 | 0.01 | 0.01 | 98 | 1009.3 |
| 20260902080915 | 57 | 166 | 12.0 | 18.0 | 0.00 | 0.01 | 0.01 | 98 | 1009.3 |
| 20260902080842 | 57 | 186 | 12.0 | 18.0 | 0.00 | 0.01 | 0.01 | 98 | 1009.3 |
| 20260902080408 | 58 | 226 | 9.0 | 18.0 | 0.00 | 0.01 | 0.01 | 97 | 1009.4 |
| 20260902075902 | 58 | 201 | 10.0 | 15.0 | 0.00 | 0.01 | 0.01 | 97 | 1009.3 |
| 20260902075808 | 58 | 194 | 6.0 | 15.0 | 0.00 | 0.01 | 0.01 | 97 | 1009.3 |
| 20260902075354 | 58 | 176 | 9.0 | 16.0 | 0.00 | 0.01 | 0.01 | 98 | 1009.3 |
| 20260902075251 | 58 | 203 | 10.0 | 16.0 | 0.00 | 0.01 | 0.01 | 98 | 1009.4 |
| 20260902074847 | 58 | 196 | 8.0 | 16.0 | 0.00 | 0.01 | 0.01 | 98 | 1009.3 |
| 20260902074737 | 58 | 186 | 10.0 | 16.0 | 0.00 | 0.01 | 0.01 | 97 | 1009.4 |
| 20260902074341 | 57 | 194 | 6.0 | 16.0 | 0.00 | 0.01 | 0.01 | 98 | 1009.4 |
| 20260902074217 | 57 | 203 | 9.0 | 16.0 | 0.00 | 0.01 | 0.01 | 98 | 1009.4 |
| 20260902073700 | 57 | 253 | 10.0 | 11.0 | 0.00 | 0.01 | 0.01 | 98 | 1009.4 |
| 20260902073143 | 57 | 172 | 5.0 | 10.0 | 0.00 | 0.01 | 0.01 | 98 | 1009.4 |
| 20260902072819 | 57 | 200 | 2.0 | 10.0 | 0.00 | 0.01 | 0.01 | 98 | 1009.4 |
| 20260902072626 | 57 | 221 | 6.0 | 10.0 | 0.00 | 0.01 | 0.01 | 98 | 1009.5 |
| 20260902072312 | 57 | 194 | 7.0 | 10.0 | 0.00 | 0.01 | 0.01 | 98 | 1009.5 |
| 20260902072109 | 57 | 221 | 6.0 | 9.0 | 0.00 | 0.01 | 0.01 | 98 | 1009.5 |
| 20260902071805 | 58 | 196 | 8.0 | 16.0 | 0.00 | 0.01 | 0.01 | 97 | 1009.5 |
| 20260902071552 | 58 | 222 | 9.0 | 16.0 | 0.00 | 0.01 | 0.01 | 97 | 1009.6 |
| 20260902071258 | 58 | 198 | 9.0 | 16.0 | 0.00 | 0.01 | 0.01 | 97 | 1009.6 |
| 20260902071035 | 58 | 193 | 7.0 | 16.0 | 0.00 | 0.01 | 0.01 | 97 | 1009.7 |
| 20260902070751 | 58 | 193 | 6.0 | 16.0 | 0.00 | 0.01 | 0.01 | 97 | 1009.7 |
| 20260902070518 | 58 | 193 | 11.0 | 16.0 | 0.00 | 0.01 | 0.01 | 97 | 1009.9 |
| 20260902070244 | 58 | 219 | 11.0 | 16.0 | 0.00 | 0.01 | 0.01 | 97 | 1010.1 |
| 20260902070001 | 58 | 219 | 13.0 | 16.0 | 0.00 | 0.01 | 0.01 | 97 | 1010.1 |
| 20260902065738 | 58 | 170 | 11.0 | 14.0 | 0.00 | 0.01 | 0.01 | 97 | 1010.1 |
| 20260902065444 | 58 | 221 | 9.0 | 18.0 | 0.00 | 0.01 | 0.01 | 97 | 1009.9 |
| 20260902065231 | 58 | 187 | 11.0 | 18.0 | 0.00 | 0.01 | 0.01 | 97 | 1009.9 |
| 20260902064927 | 58 | 193 | 8.0 | 18.0 | 0.00 | 0.01 | 0.01 | 97 | 1009.9 |
| 20260902064723 | 58 | 182 | 11.0 | 18.0 | 0.00 | 0.01 | 0.01 | 97 | 1009.9 |
| 20260902064410 | 58 | 226 | 7.0 | 18.0 | 0.00 | 0.01 | 0.01 | 97 | 1009.9 |
| 20260902064216 | 58 | 210 | 9.0 | 18.0 | 0.00 | 0.01 | 0.01 | 97 | 1010.1 |
| 20260902063853 | 58 | 177 | 7.0 | 18.0 | 0.00 | 0.01 | 0.01 | 97 | 1009.9 |
| 20260902063709 | 58 | 225 | 13.0 | 18.0 | 0.00 | 0.01 | 0.01 | 97 | 1010.1 |
| 20260902063336 | 58 | 177 | 5.0 | 17.0 | 0.00 | 0.01 | 0.01 | 97 | 1009.9 |
| 20260902063202 | 58 | 151 | 11.0 | 17.0 | 0.00 | 0.01 | 0.01 | 97 | 1010.1 |
| 20260902062819 | 58 | 218 | 12.0 | 17.0 | 0.00 | 0.01 | 0.01 | 97 | 1009.9 |
| 20260902062655 | 58 | 182 | 14.0 | 17.0 | 0.00 | 0.01 | 0.01 | 97 | 1009.9 |
| 20260902062305 | 58 | 0 | 0.0 | 8.0 | 0.00 | 0.01 | 0.01 | 97 | 1009.9 |
| 20260902062148 | 58 | 197 | 6.0 | 8.0 | 0.00 | 0.01 | 0.01 | 97 | 1009.9 |
| 20260902061745 | 58 | 218 | 6.0 | 15.0 | 0.00 | 0.01 | 0.01 | 97 | 1009.9 |
| 20260902061641 | 58 | 218 | 4.0 | 15.0 | 0.00 | 0.01 | 0.01 | 97 | 1009.9 |
| 20260902061134 | 58 | 175 | 6.0 | 15.0 | 0.00 | 0.01 | 0.01 | 97 | 1010.1 |
| 20260902060711 | 58 | 204 | 9.0 | 15.0 | 0.00 | 0.01 | 0.01 | 97 | 1010.1 |
| 20260902060627 | 58 | 214 | 9.0 | 15.0 | 0.00 | 0.01 | 0.01 | 97 | 1010.2 |
| 20260902060154 | 58 | 212 | 9.0 | 15.0 | 0.00 | 0.01 | 0.01 | 97 | 1010.2 |
| 20260902060121 | 58 | 212 | 13.0 | 15.0 | 0.00 | 0.01 | 0.01 | 97 | 1010.2 |
| 20260902055613 | 58 | 183 | 10.0 | 15.0 | 0.00 | 0.01 | 0.01 | 97 | 1010.2 |
| 20260902055106 | 58 | 187 | 6.0 | 10.0 | 0.00 | 0.01 | 0.01 | 97 | 1010.2 |
| 20260902054559 | 58 | 196 | 7.0 | 10.0 | 0.00 | 0.01 | 0.01 | 98 | 1010.3 |
| 20260902054046 | 58 | 221 | 9.0 | 10.0 | 0.00 | 0.01 | 0.01 | 98 | 1010.3 |
| 20260902053545 | 58 | 200 | 8.0 | 10.0 | 0.00 | 0.01 | 0.01 | 98 | 1010.5 |
| 20260902053529 | 58 | 200 | 5.0 | 10.0 | 0.00 | 0.01 | 0.01 | 98 | 1010.5 |
| 20260902053038 | 58 | 186 | 4.0 | 9.0 | 0.00 | 0.01 | 0.01 | 98 | 1010.5 |
| 20260902053012 | 58 | 186 | 3.0 | 9.0 | 0.00 | 0.01 | 0.01 | 98 | 1010.5 |
| 20260902052531 | 58 | 190 | 8.0 | 9.0 | 0.00 | 0.01 | 0.01 | 98 | 1010.5 |
| 20260902052455 | 58 | 190 | 6.0 | 9.0 | 0.00 | 0.01 | 0.01 | 98 | 1010.5 |
| 20260902052024 | 58 | 176 | 5.0 | 13.0 | 0.00 | 0.01 | 0.01 | 98 | 1010.6 |
| 20260902051938 | 58 | 176 | 5.0 | 13.0 | 0.00 | 0.01 | 0.01 | 98 | 1010.6 |
| 20260902051518 | 58 | 161 | 7.0 | 13.0 | 0.01 | 0.01 | 0.01 | 98 | 1010.6 |
| 20260902051421 | 58 | 161 | 6.0 | 13.0 | 0.01 | 0.01 | 0.01 | 98 | 1010.6 |
| 20260902051010 | 58 | 176 | 8.0 | 13.0 | 0.01 | 0.01 | 0.01 | 98 | 1010.6 |
| 20260902050905 | 58 | 194 | 5.0 | 13.0 | 0.01 | 0.01 | 0.01 | 98 | 1010.5 |
| 20260902050503 | 58 | 207 | 11.0 | 13.0 | 0.01 | 0.01 | 0.01 | 98 | 1010.5 |
| 20260902050347 | 58 | 180 | 5.0 | 11.0 | 0.01 | 0.01 | 0.01 | 98 | 1010.6 |
| 20260902045956 | 58 | 159 | 4.0 | 9.0 | 0.01 | 0.01 | 0.01 | 98 | 1010.5 |
| 20260902045831 | 58 | 215 | 4.0 | 9.0 | 0.01 | 0.01 | 0.01 | 98 | 1010.6 |
| 20260902045449 | 58 | 229 | 8.0 | 15.0 | 0.01 | 0.01 | 0.01 | 98 | 1010.6 |
| 20260902045313 | 58 | 205 | 6.0 | 15.0 | 0.01 | 0.01 | 0.01 | 98 | 1010.7 |
| 20260902044942 | 58 | 194 | 7.0 | 15.0 | 0.01 | 0.01 | 0.01 | 98 | 1010.7 |
| 20260902044756 | 58 | 228 | 6.0 | 15.0 | 0.01 | 0.01 | 0.01 | 98 | 1010.7 |
| 20260902044435 | 58 | 228 | 10.0 | 15.0 | 0.01 | 0.01 | 0.01 | 98 | 1010.7 |
| 20260902044239 | 58 | 187 | 10.0 | 15.0 | 0.01 | 0.01 | 0.01 | 97 | 1010.7 |
| 20260902043928 | 58 | 187 | 8.0 | 15.0 | 0.01 | 0.01 | 0.01 | 98 | 1010.7 |
| 20260902043722 | 58 | 210 | 8.0 | 12.0 | 0.01 | 0.01 | 0.01 | 97 | 1010.7 |
| 20260902043421 | 58 | 170 | 7.0 | 8.0 | 0.01 | 0.01 | 0.01 | 97 | 1010.7 |
| 20260902043205 | 58 | 197 | 8.0 | 13.0 | 0.01 | 0.01 | 0.01 | 97 | 1010.7 |
| 20260902042914 | 58 | 217 | 7.0 | 13.0 | 0.01 | 0.01 | 0.01 | 97 | 1010.7 |
| 20260902042648 | 58 | 212 | 9.0 | 13.0 | 0.01 | 0.01 | 0.01 | 97 | 1010.7 |
| 20260902042407 | 58 | 212 | 12.0 | 13.0 | 0.01 | 0.01 | 0.01 | 97 | 1010.6 |
| 20260902042131 | 58 | 203 | 7.0 | 13.0 | 0.01 | 0.01 | 0.01 | 97 | 1010.6 |
| 20260902041900 | 58 | 212 | 4.0 | 13.0 | 0.01 | 0.01 | 0.01 | 97 | 1010.9 |
| 20260902041614 | 58 | 190 | 10.0 | 13.0 | 0.00 | 0.00 | 0.00 | 96 | 1010.9 |
| 20260902041353 | 58 | 173 | 5.0 | 12.0 | 0.00 | 0.00 | 0.00 | 96 | 1010.9 |
| 20260902041057 | 58 | 196 | 8.0 | 12.0 | 0.00 | 0.00 | 0.00 | 96 | 1010.8 |
| 20260902040846 | 58 | 166 | 7.0 | 12.0 | 0.00 | 0.00 | 0.00 | 96 | 1010.8 |
| 20260902040540 | 59 | 191 | 10.0 | 18.0 | 0.00 | 0.00 | 0.00 | 96 | 1010.8 |
| 20260902040023 | 59 | 203 | 8.0 | 18.0 | 0.00 | 0.00 | 0.00 | 95 | 1010.7 |
| 20260902035832 | 59 | 217 | 10.0 | 18.0 | 0.00 | 0.00 | 0.00 | 95 | 1010.7 |
| 20260902035506 | 59 | 200 | 7.0 | 18.0 | 0.00 | 0.00 | 0.00 | 95 | 1010.7 |
| 20260902035325 | 59 | 211 | 8.0 | 18.0 | 0.00 | 0.00 | 0.00 | 95 | 1010.7 |
| 20260902034949 | 59 | 200 | 10.0 | 18.0 | 0.00 | 0.00 | 0.00 | 94 | 1010.6 |
| 20260902034818 | 59 | 246 | 4.0 | 15.0 | 0.00 | 0.00 | 0.00 | 94 | 1010.7 |
| 20260902034432 | 59 | 229 | 4.0 | 15.0 | 0.00 | 0.00 | 0.00 | 94 | 1010.6 |
| 20260902034311 | 59 | 229 | 7.0 | 15.0 | 0.00 | 0.00 | 0.00 | 94 | 1010.6 |
| 20260902033915 | 59 | 233 | 9.0 | 15.0 | 0.00 | 0.00 | 0.00 | 94 | 1010.6 |
| 20260902033804 | 59 | 155 | 9.0 | 15.0 | 0.00 | 0.00 | 0.00 | 93 | 1010.6 |
| 20260902033358 | 59 | 155 | 11.0 | 15.0 | 0.00 | 0.00 | 0.00 | 93 | 1010.6 |
| 20260902033257 | 59 | 184 | 11.0 | 15.0 | 0.00 | 0.00 | 0.00 | 93 | 1010.7 |
| 20260902032841 | 59 | 208 | 3.0 | 14.0 | 0.00 | 0.00 | 0.00 | 93 | 1010.7 |
| 20260902032750 | 59 | 190 | 8.0 | 14.0 | 0.00 | 0.00 | 0.00 | 93 | 1010.6 |
| 20260902032324 | 59 | 207 | 2.0 | 14.0 | 0.00 | 0.00 | 0.00 | 93 | 1010.7 |
| 20260902032243 | 59 | 212 | 10.0 | 14.0 | 0.00 | 0.00 | 0.00 | 93 | 1010.7 |
| 20260902031807 | 59 | 203 | 9.0 | 12.0 | 0.00 | 0.00 | 0.00 | 93 | 1010.7 |
| 20260902031736 | 59 | 211 | 7.0 | 12.0 | 0.00 | 0.00 | 0.00 | 93 | 1010.7 |
| 20260902031250 | 59 | 214 | 4.0 | 12.0 | 0.00 | 0.00 | 0.00 | 93 | 1010.6 |
| 20260902031229 | 59 | 214 | 4.0 | 12.0 | 0.00 | 0.00 | 0.00 | 93 | 1010.7 |
| 20260902030722 | 59 | 190 | 8.0 | 12.0 | 0.00 | 0.00 | 0.00 | 92 | 1010.6 |
| 20260902030215 | 59 | 200 | 8.0 | 12.0 | 0.00 | 0.00 | 0.00 | 92 | 1010.7 |
| 20260902025708 | 59 | 207 | 8.0 | 18.0 | 0.00 | 0.00 | 0.00 | 92 | 1010.7 |
| 20260902025659 | 59 | 207 | 8.0 | 18.0 | 0.00 | 0.00 | 0.00 | 92 | 1010.7 |
| 20260902025201 | 60 | 201 | 9.0 | 18.0 | 0.00 | 0.00 | 0.00 | 92 | 1010.6 |
| 20260902025142 | 60 | 201 | 11.0 | 18.0 | 0.00 | 0.00 | 0.00 | 92 | 1010.6 |
| 20260902024654 | 60 | 215 | 6.0 | 18.0 | 0.00 | 0.00 | 0.00 | 91 | 1010.8 |
| 20260902024625 | 60 | 215 | 8.0 | 18.0 | 0.00 | 0.00 | 0.00 | 91 | 1010.8 |
| 20260902024147 | 60 | 217 | 7.0 | 18.0 | 0.00 | 0.00 | 0.00 | 91 | 1010.8 |
| 20260902024108 | 60 | 217 | 6.0 | 18.0 | 0.00 | 0.00 | 0.00 | 91 | 1010.8 |
| 20260902023640 | 60 | 208 | 12.0 | 18.0 | 0.00 | 0.00 | 0.00 | 90 | 1010.8 |
| 20260902023551 | 60 | 208 | 12.0 | 18.0 | 0.00 | 0.00 | 0.00 | 90 | 1010.7 |
| 20260902023133 | 61 | 173 | 10.0 | 11.0 | 0.00 | 0.00 | 0.00 | 90 | 1010.7 |
| 20260902023036 | 61 | 189 | 7.0 | 11.0 | 0.00 | 0.00 | 0.00 | 90 | 1010.6 |
| 20260902022627 | 61 | 204 | 7.0 | 11.0 | 0.00 | 0.00 | 0.00 | 90 | 1010.7 |
| 20260902022517 | 61 | 204 | 8.0 | 11.0 | 0.00 | 0.00 | 0.00 | 90 | 1010.6 |
| 20260902022119 | 61 | 193 | 7.0 | 11.0 | 0.00 | 0.00 | 0.00 | 90 | 1010.5 |
| 20260902022000 | 61 | 193 | 8.0 | 11.0 | 0.00 | 0.00 | 0.00 | 90 | 1010.6 |
| 20260902021612 | 61 | 176 | 10.0 | 11.0 | 0.00 | 0.00 | 0.00 | 89 | 1010.6 |
| 20260902021445 | 61 | 168 | 6.0 | 11.0 | 0.00 | 0.00 | 0.00 | 90 | 1010.5 |
| 20260902021105 | 61 | 186 | 6.0 | 11.0 | 0.00 | 0.00 | 0.00 | 89 | 1010.5 |
| 20260902020927 | 61 | 224 | 3.0 | 11.0 | 0.00 | 0.00 | 0.00 | 89 | 1010.5 |
| 20260902020558 | 61 | 204 | 6.0 | 9.0 | 0.00 | 0.00 | 0.00 | 89 | 1010.6 |
| 20260902020411 | 61 | 186 | 1.0 | 3.0 | 0.00 | 0.00 | 0.00 | 89 | 1010.5 |
| 20260902020051 | 61 | 280 | 7.0 | 11.0 | 0.00 | 0.00 | 0.00 | 89 | 1010.6 |
| 20260902015852 | 61 | 214 | 5.0 | 11.0 | 0.00 | 0.00 | 0.00 | 89 | 1010.5 |
| 20260902015544 | 61 | 222 | 5.0 | 11.0 | 0.00 | 0.00 | 0.00 | 89 | 1010.5 |
| 20260902015339 | 61 | 189 | 2.0 | 11.0 | 0.00 | 0.00 | 0.00 | 89 | 1010.5 |
| 20260902015037 | 61 | 191 | 5.0 | 11.0 | 0.00 | 0.00 | 0.00 | 89 | 1010.5 |
| 20260902014818 | 61 | 210 | 4.0 | 11.0 | 0.00 | 0.00 | 0.00 | 88 | 1010.5 |
| 20260902014530 | 61 | 184 | 6.0 | 7.0 | 0.00 | 0.00 | 0.00 | 88 | 1010.5 |
| 20260902014301 | 61 | 207 | 7.0 | 12.0 | 0.00 | 0.00 | 0.00 | 88 | 1010.6 |
| 20260902014023 | 62 | 189 | 4.0 | 12.0 | 0.00 | 0.00 | 0.00 | 88 | 1010.5 |
| 20260902013744 | 62 | 197 | 4.0 | 12.0 | 0.00 | 0.00 | 0.00 | 87 | 1010.5 |
| 20260902013517 | 62 | 189 | 6.0 | 12.0 | 0.00 | 0.00 | 0.00 | 87 | 1010.6 |
| 20260902013227 | 62 | 200 | 6.0 | 12.0 | 0.00 | 0.00 | 0.00 | 87 | 1010.6 |
| 20260902013009 | 62 | 214 | 3.0 | 12.0 | 0.00 | 0.00 | 0.00 | 87 | 1010.6 |
| 20260902012712 | 62 | 159 | 9.0 | 12.0 | 0.00 | 0.00 | 0.00 | 87 | 1010.6 |
| 20260902012502 | 63 | 221 | 9.0 | 11.0 | 0.00 | 0.00 | 0.00 | 86 | 1010.7 |
| 20260902012153 | 63 | 225 | 4.0 | 11.0 | 0.00 | 0.00 | 0.00 | 87 | 1010.6 |
| 20260902011955 | 63 | 225 | 5.0 | 11.0 | 0.00 | 0.00 | 0.00 | 87 | 1010.6 |
| 20260902011636 | 63 | 254 | 3.0 | 11.0 | 0.00 | 0.00 | 0.00 | 87 | 1010.5 |
| 20260902011448 | 63 | 189 | 4.0 | 11.0 | 0.00 | 0.00 | 0.00 | 87 | 1010.3 |
| 20260902011119 | 63 | 205 | 6.0 | 11.0 | 0.00 | 0.00 | 0.00 | 87 | 1010.3 |
| 20260902010941 | 63 | 250 | 5.0 | 11.0 | 0.00 | 0.00 | 0.00 | 87 | 1010.3 |
| 20260902010435 | 63 | 204 | 6.0 | 9.0 | 0.00 | 0.00 | 0.00 | 87 | 1010.2 |
| 20260902010045 | 63 | 214 | 4.0 | 6.0 | 0.00 | 0.00 | 0.00 | 87 | 1010.3 |
| 20260902005927 | 63 | 163 | 4.0 | 4.0 | 0.00 | 0.00 | 0.00 | 87 | 1010.5 |
| 20260902005528 | 63 | 229 | 3.0 | 14.0 | 0.00 | 0.00 | 0.00 | 87 | 1010.5 |
| 20260902005420 | 63 | 229 | 6.0 | 14.0 | 0.00 | 0.00 | 0.00 | 87 | 1010.5 |
| 20260902005011 | 62 | 236 | 3.0 | 14.0 | 0.00 | 0.00 | 0.00 | 87 | 1010.6 |
| 20260902004913 | 62 | 236 | 3.0 | 14.0 | 0.00 | 0.00 | 0.00 | 87 | 1010.6 |
| 20260902004454 | 62 | 208 | 5.0 | 14.0 | 0.00 | 0.00 | 0.00 | 87 | 1010.5 |
| 20260902004406 | 62 | 208 | 3.0 | 14.0 | 0.00 | 0.00 | 0.00 | 87 | 1010.5 |
| 20260902003937 | 62 | 249 | 5.0 | 12.0 | 0.00 | 0.00 | 0.00 | 88 | 1010.5 |
| 20260902003900 | 62 | 249 | 6.0 | 12.0 | 0.00 | 0.00 | 0.00 | 88 | 1010.5 |
| 20260902003352 | 62 | 210 | 2.0 | 12.0 | 0.00 | 0.00 | 0.00 | 88 | 1010.6 |
| 20260902002903 | 62 | 168 | 5.0 | 12.0 | 0.00 | 0.00 | 0.00 | 87 | 1010.6 |
| 20260902002845 | 62 | 168 | 5.0 | 12.0 | 0.00 | 0.00 | 0.00 | 87 | 1010.6 |
| 20260902002347 | 62 | 197 | 9.0 | 12.0 | 0.00 | 0.00 | 0.00 | 87 | 1010.6 |
| 20260902001830 | 62 | 215 | 2.0 | 10.0 | 0.00 | 0.00 | 0.00 | 87 | 1010.7 |
| 20260902001324 | 62 | 226 | 6.0 | 10.0 | 0.00 | 0.00 | 0.00 | 87 | 1010.8 |
| 20260902001312 | 62 | 197 | 8.0 | 10.0 | 0.00 | 0.00 | 0.00 | 87 | 1010.8 |
| 20260902000817 | 62 | 228 | 6.0 | 11.0 | 0.00 | 0.00 | 0.00 | 87 | 1010.7 |
| 20260902000755 | 62 | 179 | 6.0 | 11.0 | 0.00 | 0.00 | 0.00 | 87 | 1010.7 |
| 20260902000312 | 62 | 212 | 5.0 | 11.0 | 0.00 | 0.00 | 0.00 | 87 | 1010.8 |
| 20260902000238 | 62 | 201 | 7.0 | 11.0 | 0.00 | 0.00 | 0.00 | 87 | 1010.8 |
| 20260901235803 | 62 | 215 | 8.0 | 11.0 | 0.00 | 0.00 | 0.00 | 86 | 1010.7 |
| 20260901235721 | 62 | 215 | 8.0 | 11.0 | 0.00 | 0.00 | 0.00 | 86 | 1010.7 |
| 20260901235256 | 63 | 197 | 5.0 | 13.0 | 0.00 | 0.00 | 0.00 | 86 | 1010.7 |
| 20260901235205 | 63 | 197 | 3.0 | 13.0 | 0.00 | 0.00 | 0.00 | 86 | 1010.7 |
| 20260901234749 | 62 | 194 | 5.0 | 13.0 | 0.00 | 0.00 | 0.00 | 86 | 1010.7 |
| 20260901234647 | 62 | 194 | 7.0 | 13.0 | 0.00 | 0.00 | 0.00 | 86 | 1010.8 |
| 20260901234130 | 63 | 176 | 5.0 | 13.0 | 0.00 | 0.00 | 0.00 | 85 | 1010.8 |
| 20260901233613 | 63 | 205 | 9.0 | 13.0 | 0.00 | 0.00 | 0.00 | 84 | 1010.9 |
| 20260901233056 | 63 | 187 | 7.0 | 11.0 | 0.00 | 0.00 | 0.00 | 84 | 1010.9 |
| 20260901232721 | 63 | 205 | 11.0 | 17.0 | 0.00 | 0.00 | 0.00 | 84 | 1010.9 |
| 20260901232540 | 63 | 194 | 8.0 | 17.0 | 0.00 | 0.00 | 0.00 | 83 | 1010.9 |
| 20260901232214 | 63 | 189 | 8.0 | 17.0 | 0.00 | 0.00 | 0.00 | 83 | 1010.9 |
| 20260901231707 | 64 | 194 | 8.0 | 17.0 | 0.00 | 0.00 | 0.00 | 82 | 1011.0 |
| 20260901231505 | 64 | 212 | 6.0 | 17.0 | 0.00 | 0.00 | 0.00 | 82 | 1011.0 |
| 20260901231200 | 64 | 173 | 6.0 | 15.0 | 0.00 | 0.00 | 0.00 | 82 | 1011.0 |
| 20260901230950 | 64 | 173 | 8.0 | 15.0 | 0.00 | 0.00 | 0.00 | 83 | 1011.0 |
| 20260901230653 | 64 | 208 | 7.0 | 15.0 | 0.00 | 0.00 | 0.00 | 82 | 1011.0 |
| 20260901230431 | 64 | 194 | 10.0 | 15.0 | 0.00 | 0.00 | 0.00 | 82 | 1011.0 |
| 20260901230146 | 64 | 169 | 10.0 | 14.0 | 0.00 | 0.00 | 0.00 | 81 | 1011.0 |
| 20260901225914 | 64 | 193 | 7.0 | 19.0 | 0.00 | 0.00 | 0.00 | 81 | 1011.0 |
| 20260901225639 | 64 | 183 | 9.0 | 19.0 | 0.00 | 0.00 | 0.00 | 81 | 1011.1 |
| 20260901225358 | 64 | 183 | 9.0 | 19.0 | 0.00 | 0.00 | 0.00 | 81 | 1011.0 |
| 20260901225132 | 64 | 200 | 9.0 | 19.0 | 0.00 | 0.00 | 0.00 | 81 | 1011.1 |
| 20260901224840 | 65 | 211 | 8.0 | 19.0 | 0.00 | 0.00 | 0.00 | 81 | 1011.1 |
| 20260901224625 | 64 | 215 | 9.0 | 19.0 | 0.00 | 0.00 | 0.00 | 82 | 1011.0 |
| 20260901224323 | 64 | 215 | 10.0 | 19.0 | 0.00 | 0.00 | 0.00 | 82 | 1011.1 |
| 20260901224118 | 64 | 184 | 11.0 | 14.0 | 0.00 | 0.00 | 0.00 | 82 | 1011.1 |
| 20260901223806 | 64 | 191 | 9.0 | 14.0 | 0.00 | 0.00 | 0.00 | 82 | 1011.1 |
| 20260901223611 | 64 | 191 | 8.0 | 14.0 | 0.00 | 0.00 | 0.00 | 82 | 1011.1 |
| 20260901223249 | 64 | 224 | 7.0 | 10.0 | 0.00 | 0.00 | 0.00 | 81 | 1011.0 |
| 20260901223105 | 64 | 224 | 8.0 | 10.0 | 0.00 | 0.00 | 0.00 | 81 | 1011.1 |
| 20260901222732 | 64 | 245 | 7.0 | 10.0 | 0.00 | 0.00 | 0.00 | 81 | 1011.1 |
| 20260901222557 | 64 | 190 | 5.0 | 8.0 | 0.00 | 0.00 | 0.00 | 81 | 1011.1 |
| 20260901222215 | 64 | 189 | 6.0 | 8.0 | 0.00 | 0.00 | 0.00 | 80 | 1011.1 |
| 20260901222050 | 64 | 282 | 3.0 | 8.0 | 0.00 | 0.00 | 0.00 | 80 | 1011.1 |
| 20260901221658 | 64 | 282 | 5.0 | 8.0 | 0.00 | 0.00 | 0.00 | 79 | 1011.1 |
| 20260901221543 | 65 | 282 | 5.0 | 8.0 | 0.00 | 0.00 | 0.00 | 79 | 1011.1 |
| 20260901221141 | 65 | 196 | 6.0 | 8.0 | 0.00 | 0.00 | 0.00 | 78 | 1011.1 |
| 20260901221036 | 65 | 226 | 5.0 | 11.0 | 0.00 | 0.00 | 0.00 | 78 | 1011.1 |
| 20260901220625 | 65 | 197 | 6.0 | 11.0 | 0.00 | 0.00 | 0.00 | 78 | 1011.1 |
| 20260901220529 | 65 | 197 | 4.0 | 11.0 | 0.00 | 0.00 | 0.00 | 78 | 1011.1 |
| 20260901220108 | 66 | 259 | 7.0 | 11.0 | 0.00 | 0.00 | 0.00 | 77 | 1011.0 |
| 20260901220022 | 66 | 259 | 5.0 | 11.0 | 0.00 | 0.00 | 0.00 | 77 | 1011.1 |
| 20260901215550 | 66 | 179 | 6.0 | 11.0 | 0.00 | 0.00 | 0.00 | 76 | 1011.1 |
| 20260901215515 | 66 | 219 | 3.0 | 11.0 | 0.00 | 0.00 | 0.00 | 76 | 1011.1 |
| 20260901215032 | 66 | 173 | 4.0 | 9.0 | 0.00 | 0.00 | 0.00 | 76 | 1011.2 |
| 20260901215007 | 66 | 173 | 4.0 | 9.0 | 0.00 | 0.00 | 0.00 | 76 | 1011.2 |
| 20260901214516 | 67 | 210 | 8.0 | 8.0 | 0.00 | 0.00 | 0.00 | 77 | 1011.1 |
| 20260901214500 | 67 | 281 | 5.0 | 6.0 | 0.00 | 0.00 | 0.00 | 77 | 1011.1 |
| 20260901213953 | 66 | 141 | 4.0 | 8.0 | 0.00 | 0.00 | 0.00 | 78 | 1011.1 |
| 20260901213441 | 65 | 238 | 5.0 | 8.0 | 0.00 | 0.00 | 0.00 | 79 | 1010.9 |
| 20260901212939 | 65 | 280 | 4.0 | 8.0 | 0.00 | 0.00 | 0.00 | 78 | 1010.9 |
| 20260901212924 | 65 | 280 | 4.0 | 8.0 | 0.00 | 0.00 | 0.00 | 78 | 1011.0 |
| 20260901212432 | 65 | 295 | 5.0 | 8.0 | 0.00 | 0.00 | 0.00 | 78 | 1011.0 |
| 20260901212407 | 65 | 221 | 5.0 | 8.0 | 0.00 | 0.00 | 0.00 | 78 | 1011.0 |
| 20260901211925 | 65 | 214 | 6.0 | 12.0 | 0.00 | 0.00 | 0.00 | 78 | 1011.0 |
| 20260901211850 | 65 | 302 | 5.0 | 12.0 | 0.00 | 0.00 | 0.00 | 78 | 1011.0 |
| 20260901210912 | 65 | 225 | 5.0 | 12.0 | 0.00 | 0.00 | 0.00 | 79 | 1010.9 |
| 20260901210816 | 65 | 0 | 0.0 | 12.0 | 0.00 | 0.00 | 0.00 | 79 | 1010.9 |
| 20260901210404 | 65 | 201 | 10.0 | 12.0 | 0.00 | 0.00 | 0.00 | 79 | 1010.9 |
| 20260901210259 | 65 | 207 | 6.0 | 8.0 | 0.00 | 0.00 | 0.00 | 79 | 1010.8 |
| 20260901205857 | 65 | 225 | 5.0 | 10.0 | 0.00 | 0.00 | 0.00 | 78 | 1010.9 |
| 20260901205742 | 65 | 271 | 4.0 | 10.0 | 0.00 | 0.00 | 0.00 | 78 | 1010.9 |
| 20260901205351 | 65 | 271 | 5.0 | 10.0 | 0.00 | 0.00 | 0.00 | 78 | 1011.0 |
| 20260901205225 | 65 | 308 | 4.0 | 10.0 | 0.00 | 0.00 | 0.00 | 78 | 1011.0 |
| 20260901204843 | 65 | 203 | 7.0 | 10.0 | 0.00 | 0.00 | 0.00 | 78 | 1011.0 |
| 20260901204708 | 65 | 179 | 3.0 | 10.0 | 0.00 | 0.00 | 0.00 | 78 | 1010.9 |
| 20260901204336 | 66 | 193 | 5.0 | 10.0 | 0.00 | 0.00 | 0.00 | 78 | 1010.9 |
| 20260901204151 | 66 | 197 | 5.0 | 10.0 | 0.00 | 0.00 | 0.00 | 78 | 1010.9 |
| 20260901203830 | 66 | 0 | 0.0 | 11.0 | 0.00 | 0.00 | 0.00 | 79 | 1011.0 |
| 20260901203634 | 66 | 246 | 3.0 | 11.0 | 0.00 | 0.00 | 0.00 | 79 | 1011.0 |
| 20260901203322 | 65 | 236 | 4.0 | 11.0 | 0.00 | 0.00 | 0.00 | 79 | 1011.0 |
| 20260901203117 | 65 | 224 | 5.0 | 11.0 | 0.00 | 0.00 | 0.00 | 79 | 1011.1 |
| 20260901202816 | 65 | 214 | 3.0 | 11.0 | 0.00 | 0.00 | 0.00 | 80 | 1011.1 |
| 20260901202308 | 65 | 0 | 0.0 | 11.0 | 0.00 | 0.00 | 0.00 | 81 | 1011.1 |
| 20260901202043 | 65 | 204 | 7.0 | 11.0 | 0.00 | 0.00 | 0.00 | 81 | 1011.1 |
| 20260901201801 | 65 | 218 | 7.0 | 11.0 | 0.00 | 0.00 | 0.00 | 81 | 1011.1 |
| 20260901201526 | 65 | 196 | 5.0 | 8.0 | 0.00 | 0.00 | 0.00 | 81 | 1011.1 |
| 20260901201254 | 64 | 285 | 3.0 | 13.0 | 0.00 | 0.00 | 0.00 | 81 | 1011.1 |
| 20260901201009 | 64 | 285 | 4.0 | 13.0 | 0.00 | 0.00 | 0.00 | 81 | 1011.1 |
| 20260901200747 | 64 | 208 | 5.0 | 13.0 | 0.00 | 0.00 | 0.00 | 81 | 1011.2 |
| 20260901200452 | 64 | 253 | 2.0 | 13.0 | 0.00 | 0.00 | 0.00 | 81 | 1011.2 |
| 20260901200240 | 65 | 201 | 8.0 | 13.0 | 0.00 | 0.00 | 0.00 | 81 | 1011.2 |
| 20260901195936 | 65 | 201 | 6.0 | 13.0 | 0.00 | 0.00 | 0.00 | 81 | 1011.2 |
| 20260901195734 | 65 | 194 | 10.0 | 13.0 | 0.00 | 0.00 | 0.00 | 81 | 1011.2 |
| 20260901195418 | 64 | 289 | 6.0 | 12.0 | 0.00 | 0.00 | 0.00 | 81 | 1011.0 |
| 20260901195226 | 64 | 197 | 6.0 | 12.0 | 0.00 | 0.00 | 0.00 | 81 | 1011.0 |
| 20260901194901 | 64 | 214 | 8.0 | 11.0 | 0.00 | 0.00 | 0.00 | 81 | 1010.9 |
| 20260901194719 | 64 | 217 | 6.0 | 11.0 | 0.00 | 0.00 | 0.00 | 81 | 1010.9 |
| 20260901194344 | 64 | 308 | 2.0 | 11.0 | 0.00 | 0.00 | 0.00 | 81 | 1011.0 |
| 20260901194212 | 64 | 159 | 7.0 | 11.0 | 0.00 | 0.00 | 0.00 | 81 | 1010.9 |
| 20260901193828 | 64 | 144 | 1.0 | 10.0 | 0.00 | 0.00 | 0.00 | 81 | 1010.9 |
| 20260901193705 | 64 | 172 | 7.0 | 10.0 | 0.00 | 0.00 | 0.00 | 81 | 1011.0 |
| 20260901193310 | 64 | 204 | 4.0 | 9.0 | 0.00 | 0.00 | 0.00 | 81 | 1011.0 |
| 20260901193158 | 64 | 204 | 4.0 | 12.0 | 0.00 | 0.00 | 0.00 | 81 | 1011.0 |
| 20260901192753 | 64 | 243 | 5.0 | 12.0 | 0.00 | 0.00 | 0.00 | 81 | 1011.0 |
| 20260901192651 | 64 | 243 | 4.0 | 12.0 | 0.00 | 0.00 | 0.00 | 80 | 1011.0 |
| 20260901192237 | 64 | 212 | 7.0 | 12.0 | 0.00 | 0.00 | 0.00 | 80 | 1011.1 |
| 20260901192144 | 64 | 212 | 5.0 | 12.0 | 0.00 | 0.00 | 0.00 | 80 | 1011.1 |
| 20260901191719 | 65 | 214 | 10.0 | 12.0 | 0.00 | 0.00 | 0.00 | 80 | 1011.1 |
| 20260901191638 | 65 | 214 | 6.0 | 12.0 | 0.00 | 0.00 | 0.00 | 80 | 1011.1 |
| 20260901191202 | 65 | 179 | 4.0 | 11.0 | 0.00 | 0.00 | 0.00 | 81 | 1011.1 |
| 20260901191130 | 65 | 179 | 7.0 | 11.0 | 0.00 | 0.00 | 0.00 | 81 | 1011.1 |
| 20260901190645 | 64 | 207 | 3.0 | 11.0 | 0.00 | 0.00 | 0.00 | 82 | 1011.0 |
| 20260901190623 | 64 | 207 | 3.0 | 11.0 | 0.00 | 0.00 | 0.00 | 82 | 1011.2 |
| 20260901190128 | 64 | 226 | 7.0 | 11.0 | 0.00 | 0.00 | 0.00 | 82 | 1011.2 |
| 20260901190116 | 64 | 226 | 7.0 | 11.0 | 0.00 | 0.00 | 0.00 | 82 | 1011.2 |
| 20260901185609 | 64 | 212 | 9.0 | 11.0 | 0.00 | 0.00 | 0.00 | 82 | 1011.2 |
| 20260901185102 | 64 | 203 | 4.0 | 10.0 | 0.00 | 0.00 | 0.00 | 82 | 1011.0 |
| 20260901185054 | 64 | 203 | 4.0 | 10.0 | 0.00 | 0.00 | 0.00 | 82 | 1011.0 |
| 20260901184555 | 64 | 224 | 5.0 | 10.0 | 0.00 | 0.00 | 0.00 | 83 | 1011.0 |
| 20260901184537 | 64 | 224 | 5.0 | 10.0 | 0.00 | 0.00 | 0.00 | 83 | 1011.0 |
| 20260901184049 | 64 | 204 | 6.0 | 10.0 | 0.00 | 0.00 | 0.00 | 83 | 1011.0 |
| 20260901184021 | 64 | 190 | 3.0 | 7.0 | 0.00 | 0.00 | 0.00 | 83 | 1011.1 |
| 20260901183541 | 64 | 184 | 4.0 | 12.0 | 0.00 | 0.00 | 0.00 | 83 | 1011.1 |
| 20260901183504 | 64 | 184 | 4.0 | 12.0 | 0.00 | 0.00 | 0.00 | 83 | 1011.1 |
| 20260901183034 | 64 | 198 | 3.0 | 12.0 | 0.00 | 0.00 | 0.00 | 83 | 1011.0 |
| 20260901182946 | 64 | 198 | 4.0 | 12.0 | 0.00 | 0.00 | 0.00 | 83 | 1011.0 |
| 20260901182527 | 63 | 190 | 10.0 | 12.0 | 0.00 | 0.00 | 0.00 | 84 | 1011.1 |
| 20260901182429 | 63 | 264 | 6.0 | 12.0 | 0.00 | 0.00 | 0.00 | 84 | 1011.0 |
| 20260901182021 | 63 | 176 | 9.0 | 12.0 | 0.00 | 0.00 | 0.00 | 84 | 1011.0 |
| 20260901181912 | 63 | 288 | 4.0 | 11.0 | 0.00 | 0.00 | 0.00 | 84 | 1011.1 |
| 20260901181513 | 63 | 180 | 8.0 | 11.0 | 0.00 | 0.00 | 0.00 | 85 | 1011.0 |
| 20260901181355 | 63 | 221 | 5.0 | 10.0 | 0.00 | 0.00 | 0.00 | 85 | 1011.0 |
| 20260901181006 | 63 | 231 | 7.0 | 10.0 | 0.00 | 0.00 | 0.00 | 86 | 1011.0 |
| 20260901180838 | 63 | 221 | 6.0 | 10.0 | 0.00 | 0.00 | 0.00 | 86 | 1011.0 |
| 20260901180459 | 63 | 210 | 6.0 | 10.0 | 0.00 | 0.00 | 0.00 | 87 | 1011.0 |
| 20260901180321 | 63 | 224 | 5.0 | 8.0 | 0.00 | 0.00 | 0.00 | 87 | 1011.0 |
| 20260901175952 | 62 | 194 | 5.0 | 8.0 | 0.00 | 0.00 | 0.00 | 87 | 1010.9 |
| 20260901175804 | 62 | 203 | 6.0 | 8.0 | 0.00 | 0.00 | 0.00 | 88 | 1011.0 |
| 20260901175445 | 62 | 288 | 2.0 | 5.0 | 0.00 | 0.00 | 0.00 | 88 | 1011.0 |
| 20260901175247 | 62 | 225 | 7.0 | 10.0 | 0.00 | 0.00 | 0.00 | 88 | 1011.0 |
| 20260901174938 | 62 | 200 | 3.0 | 10.0 | 0.00 | 0.00 | 0.00 | 89 | 1011.0 |
| 20260901174730 | 62 | 226 | 4.0 | 10.0 | 0.00 | 0.00 | 0.00 | 89 | 1011.0 |
| 20260901174431 | 62 | 231 | 6.0 | 10.0 | 0.00 | 0.00 | 0.00 | 90 | 1011.0 |
| 20260901174213 | 62 | 183 | 7.0 | 10.0 | 0.00 | 0.00 | 0.00 | 90 | 1011.0 |
| 20260901173924 | 62 | 183 | 8.0 | 10.0 | 0.00 | 0.00 | 0.00 | 90 | 1011.0 |
| 20260901173656 | 62 | 200 | 8.0 | 10.0 | 0.00 | 0.00 | 0.00 | 91 | 1011.0 |
| 20260901173417 | 62 | 211 | 4.0 | 9.0 | 0.00 | 0.00 | 0.00 | 91 | 1010.9 |
| 20260901173139 | 62 | 207 | 7.0 | 9.0 | 0.00 | 0.00 | 0.00 | 92 | 1011.0 |
| 20260901172910 | 62 | 182 | 2.0 | 9.0 | 0.00 | 0.00 | 0.00 | 92 | 1011.0 |
| 20260901172622 | 62 | 200 | 6.0 | 9.0 | 0.00 | 0.00 | 0.00 | 92 | 1011.0 |
| 20260901172403 | 62 | 189 | 7.0 | 9.0 | 0.00 | 0.00 | 0.00 | 93 | 1011.0 |
| 20260901172105 | 62 | 236 | 2.0 | 9.0 | 0.00 | 0.00 | 0.00 | 93 | 1011.0 |
| 20260901171857 | 61 | 0 | 0.0 | 9.0 | 0.00 | 0.00 | 0.00 | 94 | 1011.0 |
| 20260901171349 | 61 | 231 | 5.0 | 7.0 | 0.00 | 0.00 | 0.00 | 94 | 1011.0 |
| 20260901171031 | 61 | 186 | 5.0 | 7.0 | 0.00 | 0.00 | 0.00 | 95 | 1010.9 |
| 20260901170842 | 61 | 0 | 0.0 | 7.0 | 0.00 | 0.00 | 0.00 | 95 | 1010.9 |
| 20260901170514 | 61 | 201 | 6.0 | 7.0 | 0.00 | 0.00 | 0.00 | 95 | 1011.0 |
| 20260901170337 | 61 | 225 | 5.0 | 5.0 | 0.00 | 0.00 | 0.00 | 96 | 1010.9 |
| 20260901165957 | 60 | 0 | 0.0 | 0.0 | 0.00 | 0.00 | 0.00 | 96 | 1010.9 |
| 20260901165440 | 60 | 183 | 1.0 | 8.0 | 0.00 | 0.00 | 0.00 | 96 | 1011.0 |
| 20260901165321 | 60 | 0 | 0.0 | 8.0 | 0.00 | 0.00 | 0.00 | 97 | 1011.0 |
| 20260901164923 | 60 | 0 | 0.0 | 8.0 | 0.00 | 0.00 | 0.00 | 97 | 1010.9 |
| 20260901164814 | 60 | 0 | 0.0 | 8.0 | 0.00 | 0.00 | 0.00 | 97 | 1010.9 |
| 20260901164406 | 60 | 172 | 5.0 | 8.0 | 0.00 | 0.00 | 0.00 | 97 | 1010.9 |
| 20260901163849 | 60 | 0 | 0.0 | 4.0 | 0.00 | 0.00 | 0.00 | 98 | 1010.9 |
| 20260901163800 | 60 | 0 | 0.0 | 4.0 | 0.00 | 0.00 | 0.00 | 98 | 1010.9 |
| 20260901163253 | 59 | 184 | 2.0 | 4.0 | 0.00 | 0.00 | 0.00 | 98 | 1010.8 |
| 20260901162815 | 59 | 196 | 1.0 | 9.0 | 0.00 | 0.00 | 0.00 | 98 | 1010.9 |
| 20260901162746 | 59 | 201 | 5.0 | 9.0 | 0.00 | 0.00 | 0.00 | 98 | 1010.9 |
| 20260901162258 | 59 | 205 | 3.0 | 9.0 | 0.00 | 0.00 | 0.00 | 99 | 1010.9 |
| 20260901162239 | 59 | 205 | 3.0 | 9.0 | 0.00 | 0.00 | 0.00 | 99 | 1010.9 |
| 20260901161741 | 59 | 175 | 7.0 | 9.0 | 0.00 | 0.00 | 0.00 | 99 | 1010.9 |
| 20260901161732 | 59 | 175 | 7.0 | 9.0 | 0.00 | 0.00 | 0.00 | 99 | 1011.0 |
| 20260901161224 | 59 | 203 | 6.0 | 9.0 | 0.00 | 0.00 | 0.00 | 99 | 1011.0 |
| 20260901160718 | 59 | 200 | 6.0 | 8.0 | 0.00 | 0.00 | 0.00 | 99 | 1011.0 |
| 20260901160707 | 59 | 200 | 6.0 | 8.0 | 0.00 | 0.00 | 0.00 | 99 | 1011.0 |
| 20260901160211 | 59 | 200 | 5.0 | 8.0 | 0.00 | 0.00 | 0.00 | 99 | 1011.0 |
| 20260901160150 | 59 | 200 | 5.0 | 8.0 | 0.00 | 0.00 | 0.00 | 99 | 1011.0 |
| 20260901155704 | 58 | 215 | 7.0 | 11.0 | 0.00 | 0.00 | 0.00 | 100 | 1010.9 |
| 20260901155633 | 59 | 215 | 7.0 | 11.0 | 0.00 | 0.00 | 0.00 | 100 | 1010.9 |
| 20260901155157 | 58 | 191 | 5.0 | 11.0 | 0.00 | 0.00 | 0.00 | 100 | 1010.9 |
| 20260901155116 | 58 | 191 | 6.0 | 11.0 | 0.00 | 0.00 | 0.00 | 100 | 1010.9 |
| 20260901154650 | 58 | 247 | 5.0 | 11.0 | 0.00 | 0.00 | 0.00 | 100 | 1010.9 |
| 20260901154143 | 58 | 242 | 3.0 | 7.0 | 0.00 | 0.00 | 0.00 | 100 | 1010.9 |
| 20260901154042 | 58 | 242 | 3.0 | 7.0 | 0.00 | 0.00 | 0.00 | 100 | 1010.9 |
| 20260901153636 | 58 | 127 | 2.0 | 10.0 | 0.00 | 0.00 | 0.00 | 100 | 1010.9 |
| 20260901153525 | 57 | 0 | 0.0 | 10.0 | 0.00 | 0.00 | 0.00 | 100 | 1010.9 |
| 20260901153129 | 57 | 212 | 4.0 | 10.0 | 0.00 | 0.00 | 0.00 | 100 | 1010.9 |
| 20260901153008 | 57 | 207 | 4.0 | 10.0 | 0.00 | 0.00 | 0.00 | 100 | 1010.9 |
| 20260901152622 | 57 | 201 | 4.0 | 10.0 | 0.00 | 0.00 | 0.00 | 100 | 1010.9 |
| 20260901152452 | 57 | 243 | 4.0 | 10.0 | 0.00 | 0.00 | 0.00 | 100 | 1011.0 |
| 20260901152115 | 57 | 198 | 9.0 | 10.0 | 0.00 | 0.00 | 0.00 | 100 | 1010.9 |
| 20260901151934 | 57 | 198 | 7.0 | 10.0 | 0.00 | 0.00 | 0.00 | 100 | 1011.0 |
| 20260901151608 | 57 | 197 | 3.0 | 9.0 | 0.00 | 0.00 | 0.00 | 100 | 1010.9 |
| 20260901151417 | 57 | 197 | 3.0 | 9.0 | 0.00 | 0.00 | 0.00 | 100 | 1011.0 |
| 20260901151102 | 57 | 193 | 4.0 | 9.0 | 0.00 | 0.00 | 0.00 | 100 | 1010.9 |
| 20260901150900 | 57 | 207 | 5.0 | 9.0 | 0.00 | 0.00 | 0.00 | 100 | 1010.9 |
| 20260901150554 | 57 | 218 | 8.0 | 9.0 | 0.00 | 0.00 | 0.00 | 100 | 1010.8 |
| 20260901150343 | 57 | 169 | 4.0 | 11.0 | 0.00 | 0.00 | 0.00 | 100 | 1010.9 |
| 20260901150047 | 57 | 197 | 5.0 | 11.0 | 0.00 | 0.00 | 0.00 | 100 | 1010.8 |
| 20260901145826 | 57 | 236 | 5.0 | 11.0 | 0.00 | 0.00 | 0.00 | 100 | 1010.8 |
| 20260901145310 | 57 | 0 | 0.0 | 11.0 | 0.00 | 0.00 | 0.00 | 100 | 1010.7 |
| 20260901145033 | 57 | 246 | 3.0 | 11.0 | 0.00 | 0.00 | 0.00 | 100 | 1010.7 |
| 20260901144752 | 57 | 208 | 8.0 | 11.0 | 0.00 | 0.00 | 0.00 | 100 | 1010.7 |
| 20260901144526 | 57 | 208 | 6.0 | 9.0 | 0.00 | 0.00 | 0.00 | 100 | 1010.6 |
| 20260901144235 | 57 | 208 | 4.0 | 9.0 | 0.00 | 0.00 | 0.00 | 100 | 1010.7 |
| 20260901144019 | 57 | 208 | 5.0 | 9.0 | 0.00 | 0.00 | 0.00 | 100 | 1010.7 |
| 20260901143718 | 57 | 180 | 7.0 | 9.0 | 0.00 | 0.00 | 0.00 | 100 | 1010.6 |
| 20260901143512 | 57 | 180 | 4.0 | 9.0 | 0.00 | 0.00 | 0.00 | 100 | 1010.6 |
| 20260901143201 | 57 | 201 | 2.0 | 8.0 | 0.00 | 0.00 | 0.00 | 100 | 1010.6 |
| 20260901143005 | 57 | 201 | 2.0 | 8.0 | 0.00 | 0.00 | 0.00 | 100 | 1010.6 |
| 20260901142644 | 57 | 215 | 7.0 | 8.0 | 0.00 | 0.00 | 0.00 | 100 | 1010.6 |
| 20260901142458 | 57 | 215 | 4.0 | 10.0 | 0.00 | 0.00 | 0.00 | 100 | 1010.5 |
| 20260901142127 | 57 | 186 | 6.0 | 10.0 | 0.00 | 0.00 | 0.00 | 100 | 1010.5 |
| 20260901141951 | 57 | 186 | 4.0 | 10.0 | 0.00 | 0.00 | 0.00 | 100 | 1010.5 |
| 20260901141610 | 57 | 225 | 3.0 | 10.0 | 0.00 | 0.00 | 0.00 | 100 | 1010.4 |
| 20260901141444 | 57 | 225 | 3.0 | 10.0 | 0.00 | 0.00 | 0.00 | 100 | 1010.4 |
| 20260901141053 | 57 | 196 | 6.0 | 10.0 | 0.00 | 0.00 | 0.00 | 100 | 1010.5 |
| 20260901140937 | 57 | 173 | 6.0 | 10.0 | 0.00 | 0.00 | 0.00 | 100 | 1010.4 |
| 20260901140536 | 57 | 182 | 6.0 | 8.0 | 0.00 | 0.00 | 0.00 | 100 | 1010.4 |
| 20260901140430 | 57 | 182 | 7.0 | 9.0 | 0.00 | 0.00 | 0.00 | 100 | 1010.4 |
| 20260901140019 | 57 | 205 | 6.0 | 9.0 | 0.00 | 0.00 | 0.00 | 100 | 1010.5 |
| 20260901135923 | 57 | 214 | 7.0 | 9.0 | 0.00 | 0.00 | 0.00 | 100 | 1010.5 |
| 20260901135502 | 57 | 238 | 3.0 | 9.0 | 0.00 | 0.00 | 0.00 | 100 | 1010.4 |
| 20260901135416 | 57 | 238 | 4.0 | 9.0 | 0.00 | 0.00 | 0.00 | 100 | 1010.4 |
| 20260901134945 | 57 | 208 | 2.0 | 9.0 | 0.00 | 0.00 | 0.00 | 100 | 1010.4 |
| 20260901134909 | 57 | 208 | 2.0 | 9.0 | 0.00 | 0.00 | 0.00 | 100 | 1010.4 |
| 20260901134428 | 57 | 186 | 3.0 | 8.0 | 0.00 | 0.00 | 0.00 | 100 | 1010.3 |
| 20260901134402 | 57 | 186 | 6.0 | 8.0 | 0.00 | 0.00 | 0.00 | 100 | 1010.3 |
| 20260901133911 | 57 | 197 | 4.0 | 11.0 | 0.00 | 0.00 | 0.00 | 100 | 1010.4 |
| 20260901133855 | 57 | 197 | 2.0 | 11.0 | 0.00 | 0.00 | 0.00 | 100 | 1010.4 |
| 20260901133354 | 57 | 197 | 5.0 | 11.0 | 0.00 | 0.00 | 0.00 | 100 | 1010.2 |
| 20260901133348 | 57 | 197 | 3.0 | 11.0 | 0.00 | 0.00 | 0.00 | 100 | 1010.2 |